• Join FlightAware (Why Join?)
  • Login
  • US Flag 
06:02PM EDT


 

Airport Tracker/Info


-or-


 

Live Flight TrackerFlight Track Log ✈ GPD20 ✈ 02-Sep-2013 ✈ KMVY - KTEB

Flight Track Log - Related Links

Times and Time Zones

All times are in EDT time to prevent confusion due to time zone crossing. See the GPD20 flight status page for this flight to view local times or setup timezone preferences in your user account.

Time Position Orientation Groundspeed Altitude Reporting Facility
EDT Latitude Longitude Course Direction KTS MPH feet Rate Location/Type
12:03PM 41.4333 -70.4936 259° West 173 199 4,700  Level Boston Center
12:04PM 41.3544 -70.8873 259° West  Level Estimated
12:04PM 41.4772 -70.5033 351° North 175 201 5,200  Level Boston Center
12:05PM 41.3478 -70.9329 259° West  Level Estimated
12:05PM 41.4844 -70.5586 280° West 151 174 5,600  Level Boston Center
12:06PM 41.3412 -70.9784 259° West  Level Estimated
12:06PM 41.4792 -70.6142 263° West 136 157 6,300  Level Boston Center
12:07PM 41.3346 -71.0239 259° West  Level Estimated
12:07PM 41.4797 -70.6611 271° West 139 160 6,900  Level Boston Center
12:08PM 41.3280 -71.0694 259° West  Level Estimated
12:08PM 41.5014 -70.7078 302° West 151 174 7,500  Level Boston Center
12:09PM 41.3214 -71.1149 259° West  Level Estimated
12:09PM 41.5208 -70.7517 301° West 143 165 7,900  Level Boston Center
12:10PM 41.5342 -70.8094 287° West 163 188 8,000  Climbing Boston Center
12:11PM 41.5514 -70.8589 295° West 166 191 8,000  Level Boston Center
12:12PM 41.5711 -70.9222 293° West 170 196 8,000  Level Boston Center
12:13PM 41.5886 -70.9803 292° West 164 189 8,000  Level Boston Center
12:14PM 41.6039 -71.0381 289° West 165 190 8,000  Level Boston Center
12:15PM 41.6150 -71.0961 284° West 162 186 8,000  Level Boston Center
12:16PM 41.6178 -71.1544 274° West 159 183 8,000  Level Boston Center
12:17PM 41.6225 -71.2069 277° West 159 183 8,000  Level Boston Center
12:18PM 41.6253 -71.2625 274° West 152 175 8,000  Level Boston Center
12:19PM 41.6175 -71.3267 261° West 157 181 8,000  Level Boston Center
12:20PM 41.6119 -71.3822 262° West 155 178 8,000  Level Boston Center
12:21PM 41.6039 -71.4406 260° West 154 177 8,000  Level Boston Center
12:22PM 41.5961 -71.4936 259° West 153 176 8,000  Level Boston Center
12:23PM 41.5967 -71.5547 271° West 156 180 8,000  Level Boston Center
12:24PM 41.5950 -71.6183 268° West 152 175 8,000  Level Boston Center
12:25PM 41.5953 -71.6711 270° West 152 175 8,000  Level Boston Center
12:26PM 41.6061 -71.7267 285° West 152 175 8,000  Level Boston Center
12:27PM 41.6108 -71.7847 276° West 159 183 8,000  Level Boston Center
12:28PM 41.6153 -71.8403 276° West 156 180 8,000  Level Boston Center
12:29PM 41.6175 -71.9097 272° West 154 177 8,000  Level Boston Center
12:31PM 41.6200 -71.9736 273° West 154 177 8,000  Level Boston Center
12:32PM 41.6203 -72.0292 270° West 151 174 8,000  Level Boston Center
12:33PM 41.6183 -72.0847 267° West 155 178 8,000  Level Boston Center
12:34PM 41.6183 -72.1403 270° West 157 181 8,000  Level Boston Center
12:35PM 41.6208 -72.2014 273° West 156 180 8,000  Level Boston Center
12:36PM 41.6103 -72.2542 255° West 150 173 8,000  Level Boston Center
12:37PM 41.5917 -72.3069 245° Southwest 155 178 8,000  Level Boston Center
12:38PM 41.5750 -72.3681 250° West 158 182 8,000 -60 Level Boston Center
12:39PM 41.5667 -72.4233 259° West 151 174 7,900 -420 Descending Boston Center
12:40PM 41.5564 -72.4844 257° West 172 198 7,200 -720 Descending Boston Center
12:41PM 41.5458 -72.5483 258° West 177 204 6,500 -480 Descending Boston Center
12:42PM 41.5897 -72.5733 337° Northwest 178 205 6,300 -240 Descending Boston Center
12:43PM 41.5917 -72.6289 273° West 157 181 6,100 -180 Descending Boston Center
12:44PM 41.5728 -72.6897 247° West 158 182 6,000 -60 Descending Boston Center
12:45PM 41.5581 -72.7425 250° West 153 176 6,000  Level Boston Center
12:47PM 41.4833 -72.8167 217° Southwest 170 196 6,000  Level New York TRACON
12:48PM 41.4333 -72.8167 180° South 165 190 6,000  Level New York TRACON
12:49PM 41.4000 -72.8333 201° Southwest 161 185 6,000  Level New York TRACON
12:50PM 41.3500 -72.8500 194° South 162 186 6,000  Level New York TRACON
12:51PM 41.3333 -72.8833 236° Southwest 161 185 6,000  Level New York TRACON
12:52PM 41.3000 -72.9333 228° Southwest 156 180 6,000  Level New York TRACON
12:53PM 41.2667 -72.9833 228° Southwest 157 181 6,000  Level New York TRACON
12:54PM 41.2500 -73.0333 246° West 158 182 6,000  Level New York TRACON
12:55PM 41.2333 -73.0833 246° West 156 180 6,000  Level New York TRACON
12:56PM 41.2667 -73.1333 312° West 166 191 6,100  Climbing New York TRACON
12:57PM 41.2833 -73.1833 294° West 168 193 6,000  Descending New York TRACON
12:58PM 41.3167 -73.2333 312° West 170 196 6,100  Climbing New York TRACON
12:59PM 41.3000 -73.2833 246° West 166 191 6,100 -60 Level New York TRACON
01:00PM 41.3000 -73.2500 90° East 196 226 6,000 -60 Descending New York TRACON
01:01PM 41.3000 -73.2833 270° West 188 216 6,000  Level New York TRACON
01:02PM 41.2833 -73.2333 114° Southeast 173 199 6,000  Level New York TRACON
01:03PM 41.2500 -73.2000 143° Southeast 166 191 6,000  Level New York TRACON
01:04PM 41.2167 -73.1500 132° Southeast 170 196 6,000  Level New York TRACON
01:05PM 41.1833 -73.1167 143° Southeast 174 200 6,000  Level New York TRACON
01:06PM 41.1833 -73.0667 90° East 198 228 6,000  Level New York TRACON
01:07PM 41.2000 -73.1333 288° West 157 181 6,000 60 Level New York TRACON
01:08PM 41.1667 -73.1500 201° Southwest 161 185 6,200  Climbing New York TRACON
01:09PM 41.1833 -73.2167 288° West 171 197 6,100 -60 Descending New York TRACON
01:10PM 41.2167 -73.2500 323° Northwest 165 190 6,100 -60 Level New York TRACON
01:11PM 41.2500 -73.2833 323° Northwest 171 197 6,000 -60 Descending New York TRACON
01:12PM 41.2667 -73.3500 288° West 159 183 6,000  Level New York TRACON
01:13PM 41.2667 -73.4000 270° West 159 183 6,100  Climbing New York TRACON
01:14PM 41.2667 -73.4667 270° West 160 184 6,100 -60 Level New York TRACON
01:15PM 41.2833 -73.5167 294° West 171 197 6,000 -60 Descending New York TRACON
01:16PM 41.2833 -73.5833 270° West 168 193 6,000  Level New York TRACON
01:17PM 41.2833 -73.6333 270° West 158 182 6,000  Level New York TRACON
01:18PM 41.2667 -73.7000 252° West 160 184 6,000  Level New York TRACON
01:19PM 41.2667 -73.7667 270° West 162 186 6,100  Climbing New York TRACON
01:20PM 41.2667 -73.8167 270° West 165 190 6,000 -60 Descending New York TRACON
01:21PM 41.2667 -73.8833 270° West 162 186 6,000 -300 Level New York TRACON
01:22PM 41.2500 -73.9333 246° West 181 208 5,400 -600 Descending New York TRACON
01:23PM 41.2000 -73.9333 180° South 167 192 4,800 -780 Descending New York TRACON
01:24PM 41.1667 -73.9167 159° South 168 193 3,900 -780 Descending New York TRACON
01:25PM 41.1500 -73.8833 124° Southeast 180 207 3,300 -600 Descending New York TRACON
01:26PM 41.1333 -73.9167 236° Southwest 153 176 2,700 -600 Descending New York TRACON
01:27PM 41.1000 -73.9167 180° South 145 167 2,200 -480 Descending New York TRACON
01:28PM 41.0667 -73.9167 180° South 141 162 1,800 -480 Descending New York TRACON
01:29PM 41.0167 -73.9000 166° South 143 165 1,300 -240 Descending New York TRACON
01:30PM 40.9833 -73.9167 201° Southwest 157 181 1,400  Climbing New York TRACON
01:31PM 40.9500 -73.9333 201° Southwest 148 170 1,400 -180 Level New York TRACON
01:32PM 40.9167 -73.9667 217° Southwest 124 143 1,100 -180 Descending New York TRACON
01:33PM 40.9000 -74.0000 237° Southwest 128 147 1,100 -300 Level New York TRACON
01:34PM 40.8667 -74.0333 217° Southwest 136 157 600 -540 Descending New York TRACON